Showing default

MDQUBESAT-2, 58665

Orbit data source: Space-Track

MDQUBESAT-2, 58665 is a payload satellite owned by Innova Space (AR) in SSO that was launched on Fri, 01 Dec 2023 UTC via an FALCON 9 launch vehicle from the Air Force Western Test Range (AFWTR). Payload-class satellites include a variety of spacecraft equipped with specific instruments for various scientific and technological missions. These include communications satellites like Starlink; space stations such as the ISS; scientific satellites like the Hubble; Earth observation satellites from companies like Planet Labs, Umbra, and HawkEye 360; GPS; miniature CubeSats for education and research; and military/defense satellites.

Loading next visibility...
Identifier
58665, 2023-185P
Orbit
SSO
Country
Flag of UnknownUnknown / ARGN
Related business
Manufacturer
Innova Space
Mission
Operational Commercial Communications
Bus & Motor
POCKETQUBE 2P, Unknown motor
Mass
~0.5 kg wet, ~0.5 kg dry
Launch date (UTC)
2023-12-01 (2 years ago)
Launch vehicle
FALCON 9
Launch site
Air Force Western Test Range (AFWTR)
Object type
Payload
Rocket body
Debris
Shape & HBR
Box + 2 Pan, 0.1 m
Radar Cross Section
0.006 m², Small (<0.1 m²)

Expand to show TLE details & history
Last TLE update: 16 hours ago

TLE from 16 hours ago
0 MDQUBESAT-2
1 58665U 23185P   25261.27081110  .00030170  00000-0  95587-3 0  9993
2 58665  97.5719 336.7279 0011534 145.6383 214.5607 15.32615548 95684
Epoch: 2025-09-18T06:29Z
TLE epoch observation values (Epoch: 2025-09-18T06:29:58.079Z)
Latitude
0.00004°
Longitude
-118.19891°
Altitude
477.622 km
Speed
7.623 km/s
True Right ascension
22h 26m 54s
True Declination
0° 00' 00"
Sunlit
Object was in full shadow at epoch
Visualization orbit readout
Latitude
Unknown
Longitude
Unknown
Altitude
Unknown
Speed
Unknown
Apparent Right ascension
Unknown
Apparent Declination
Unknown
Sunlit
N/A
Visualization observer readout
Local Sidereal Time
15:24:56
Azimuth
Unknown
Elevation
Unknown
Doppler factor
Unknown
Orbital elements
Apogee altitude
472.861 km
Perigee altitude
457.076 km
Semi-major axis
6,843.105 km
Eccentricity
0.00115
Inclination
97.5719°
RAAN
336.7279°
Arg. of periapsis
145.6383°
True anomaly
214.48581°
Mean anomaly
214.5607°
Eccentric anomaly
214.52325°
Mean motion
3.8341 °/min
Orbital period
93.89 mins
BSTAR
0.00095587
Loading maneuver chart data...
Computing Atmospheric mass density...
Loading historical data...
Loading historical data...
Loading historical data...
Loading historical data...
Loading historical data...
Loading historical data...
Loading historical data...

Documentation

Showing up to 5 results
|